sat.trackr.live / text

‹ back to catalog

STARLINK-3597

NORAD 51898 · 2022-022AY

PAYLOAD ACTIVE UNKNOWN

§ Identity

Operator
Country
US
Launch date
2022-03-03
Launch site
AFETR
Launch vehicle
Mass (kg)
RCS (m²)

Purposes: comms

External: N2YO · Heavens-Above · Gunter

§ Orbital elements

Epoch: 2026-05-25T00:49:22.344096Z

Period
95.44 min
Inclination
53.2136°
Eccentricity
0.0001307
Mean motion
15.08843032 rev/d
Perigee alt
538.8 km
Apogee alt
540.6 km
Semi-major
6,917.9 km
B*
2.2991e-5
RAAN
16.3977°
Arg perigee
78.5188°
Mean anomaly
281.5951°
Rev number
23,482

§ Raw data

STARLINK-35971 51898U 22022AY  26145.03428639  .00000078  00000+0  22991-4 0  99932 51898  53.2136  16.3977 0001307  78.5188 281.5951 15.08843032234828

JSON: /api/v1/satellites/51898 · /tle

For live sub-satellite position, see the globe view (requires WebGL).

§ Visibility from observer

Set your observer location to see the next 7 days of passes ≥ 10°. The values pass through the URL so the page stays shareable.

No JS? Fill the form by hand. The geolocation button needs JavaScript.